Location: Huesca
(42.1318°N, 0.4078°W)
Time: 05:03:17
(UTC+02:00)

Tiangong - Pass Details

Date: 14 June 2024
Orbit: 374 x 377 km, 41.5° (Epoch: 18 July)

Event Time Altitude Azimuth Distance (km) Brightness Sun altitude
Rises 00:10:49 0° 274° (W) 2,243 2.2 -19.7°
Reaches altitude 10° 00:13:18 10° 254° (WSW) 1,386 0.8 -19.9°
Enters shadow 00:13:47 12° 247° (WSW) 1,253 0.5 -20.0°
